Location: Unspecified
(43.4354°N, 0.0000°E)
Time: 08:18:17
(UTC+00:00)

A-11 Canister half - Pass Details

Date: 25 June 2019
Orbit: 1514 x 1685 km, 47.2° (Epoch: 16 July)

Event Time Altitude Azimuth Distance (km) Brightness Sun altitude
Rises 08:13:42 0° 203° (SSW) 4,922 11.5 39.3°
Reaches altitude 10° 08:17:13 10° 195° (SSW) 3,928 11.2 40.0°
Maximum altitude 08:26:01 36° 134° (SE) 2,423 11.3 41.6°
Drops below altitude 10° 08:34:35 10° 73° (ENE) 3,848 12.0 43.1°
Sets 08:37:59 0° 65° (ENE) 4,812 12.2 43.7°
